Home   Weather   37°52'N, 84°34'W   Past weeks
Flag for USA

Past Weather in 37°52'N, 84°34'W, USA — Yesterday and Last 2 Weeks

Now
86 °F

Passing clouds.


Feels Like: 95 °F
Forecast: 88 / 70 °F
Wind: 6 mph from West

Location: Blue Grass Airport

Current Time: Jul 19, 2019 at 12:51:44 pm

Latest Report: Jul 19, 2019 at 11:54 am


Visibility: 10 mi

Pressure: 30.03 "Hg

Humidity: 70%

Dew Point: 75 °F

Location of 37°52'N, 84°34'WLocation

Past Weather in 37°52'N, 84°34'W — Graph

°F

37°52'N, 84°34'W Temperature Yesterday

Maximum temperature yesterday: 91 °F (at 5:54 pm)
Minimum temperature yesterday: 73 °F (at 4:54 am)
Average temperature yesterday: 81 °F

High & Low Weather Summary for the Past Weeks

 TemperatureHumidityPressure
High92 °F (Jul 16, 3:54 pm)93% (Jul 5, 6:54 am)30.19 "Hg (Jul 5, 6:54 am)
Low64 °F (Jul 13, 5:54 am)33% (Jul 13, 6:54 pm)29.81 "Hg (Jul 11, 4:54 pm)
Average80 °F72%29.99 "Hg
* Reported Jul 4 10:02 am — Jul 19 10:54 am, 37°52'N, 84°34'W. Weather by CustomWeather, © 2019

Note: Actual official high and low records may vary slightly from our data, if they occured in-between our weather recording intervals... More about our weather records

Advertising

37°52'N, 84°34'W Weather History for the Previous 24 Hours

Scroll right to see more
 ConditionsComfort  
Time TempWeatherWind HumidityBarometerVisibility
10:54 am
Fri, Jul 19
85 °FPassing clouds.9 mph70%30.03 "Hg10 mi
9:54 am83 °FSunny.9 mph74%30.03 "Hg10 mi
8:54 am80 °FSunny.9 mph76%30.02 "Hg10 mi
7:54 am77 °FSunny.8 mph82%30.00 "Hg10 mi
6:54 am75 °FSunny.6 mph88%30.00 "Hg8 mi
5:54 am76 °FPassing clouds.7 mph88%29.99 "Hg9 mi
4:54 am76 °FClear.8 mph88%29.98 "Hg9 mi
3:54 am76 °FClear.6 mph88%29.98 "Hg10 mi
2:54 am77 °FClear.6 mph88%29.97 "Hg10 mi
1:54 am78 °FClear.7 mph84%29.97 "Hg10 mi
12:54 am80 °FClear.8 mph79%29.96 "Hg10 mi
11:54 pm
Thu, Jul 18
80 °FClear.9 mph79%29.95 "Hg10 mi
10:54 pm80 °FClear.8 mph79%29.95 "Hg10 mi
9:54 pm80 °FClear.5 mph76%29.93 "Hg10 mi
8:54 pm82 °FSunny.8 mph67%29.94 "Hg10 mi
7:54 pm84 °FSunny.6 mph61%29.93 "Hg10 mi
7:15 pm84 °FScattered clouds.14 mph63%29.98 "Hg10 mi
6:54 pm90 °FThundershowers. Partly sunny.N/A57%29.95 "Hg10 mi
5:54 pm91 °FScattered clouds.N/A54%29.94 "Hg10 mi
4:54 pm89 °FScattered clouds.7 mph59%29.94 "Hg10 mi
3:54 pm89 °FPartly sunny.3 mph59%29.95 "Hg10 mi
2:54 pm88 °FBroken clouds.10 mph63%29.97 "Hg10 mi
2:25 pm88 °FScattered clouds.9 mph61%30.02 "Hg10 mi
1:54 pm86 °FPartly sunny.9 mph63%29.99 "Hg10 mi
1:41 pm86 °FBroken clouds.9 mph67%30.02 "Hg10 mi
12:54 pm84 °FPartly sunny.7 mph70%29.99 "Hg10 mi
12:01 pm83 °FMore clouds than sun.8 mph72%30.02 "Hg10 mi
Weather by CustomWeather, © 2019

See weather overview